Regional Weather Roundup
Issued by NWS

Home | Current Version | Previous Version | Graphics & Text | Print | Product List | Glossary On
Versions: 1 2 3 4 5 6 7 8 9 10 11 12 13 14 15 16 17 18 19 20 21 22 23 24 25 26 27 28 29 30 31 32 33 34 35 36 37 38 39 40 41 42 43 44 45 46 47 48 49 50
000
ASUS45 KCYS 211710
RWRWY

WYOMING REGIONAL WEATHER ROUNDUP
NATIONAL WEATHER SERVICE CHEYENNE WY
1100 AM MDT SUN SEP 21 2014

NOTE:  "FAIR" INDICATES FEW OR NO CLOUDS BELOW 12,000 FEET
WITH NO SIGNIFICANT WEATHER AND/OR OBSTRUCTIONS TO VISIBILITY.

WYZ001-211800-
YELLOWSTONE NATIONAL PARK

CITY           SKY/WX    TMP DP  RH WIND       PRES   REMARKS
LK YELLOWSTONE   N/A     56  41  57 E3        30.43S
W YELLOWSTONE  NOT AVBL

$$
WYZ002>013-054>058-071-098>099-211800-
NORTHERN WYOMING

CITY           SKY/WX    TMP DP  RH WIND       PRES   REMARKS
JACKSON        SUNNY     61  45  55 CALM      30.35S
CODY             N/A    N/A N/A N/A MISG        N/A
GREYBULL       SUNNY     64  43  46 CALM      30.28F
WORLAND        SUNNY     66  41  40 CALM      30.28F
SHERIDAN       SUNNY     63  45  51 CALM      30.30F
BUFFALO        SUNNY     68  40  35 S17       30.34S
GILLETTE       SUNNY     68  40  35 S12       30.34F
HULETT         FAIR      64  36  34 MISG      30.37
NEWCASTLE      FAIR      64  34  32 SE6       30.38

$$
WYZ014>020-022>026-101>103-211800-
CENTRAL WYOMING

CITY           SKY/WX    TMP DP  RH WIND       PRES   REMARKS
BIG PINEY      CLOUDY    57  40  52 SW3       30.39F
PINEDALE       PTSUNNY   61  37  41 N6        30.39F
DUBOIS         FAIR      55  34  44 CALM      30.42F
LANDER         SUNNY     62  37  39 NW6       30.34F
RIVERTON       SUNNY     64  35  34 CALM      30.36S
CASPER         SUNNY     65  35  33 E7        30.34F
DOUGLAS        SUNNY     68  39  34 SE23      30.36F

$$
WYZ021-027>030-104>119-211800-
SOUTHERN WYOMING

CITY           SKY/WX    TMP DP  RH WIND       PRES   REMARKS
EVANSTON       CLOUDY    52  45  77 E12       30.36F
KEMMERER       CLOUDY    59  37  44 E13       30.40S
FORT BRIDGER   PTSUNNY   55  41  58 NE3       30.39F
ROCK SPRINGS   CLOUDY    59  37  44 E13       30.37S
DIXON          FAIR      65  44  46 W5        30.39S
RAWLINS        SUNNY     63  39  41 E6        30.37F
SARATOGA       FAIR      61  43  51 CALM      30.39S
LARAMIE        SUNNY     62  42  47 SE25G31   30.41S
CHEYENNE       MOSUNNY   62  37  39 S17G24    30.41F
TORRINGTON     CLOUDY    63  39  41 SE12      30.37F
PINE BLUFFS    PTSUNNY   64  36  34 SE13      30.41S

$$



USA.gov is the U.S. government's official web portal to all federal, state and local government web resources and services.